Simultaneous Nadir Overpasses (SNOs) Predictions

Prediction of SNOs between METOP-A and TERRA Satellite Orbit:

Table of predicted SNOs for the next 14.0 days since TLE Epoch: 12/30/2013
Index Date (METOP-A) Time (METOP-A) Lat,Lon (METOP-A) SZA (METOP-A ) Date (TERRA) Time (TERRA) Lat,Lon (TERRA) SZA (TERRA ) Distance(km) Time Diff (sec)
1 01/01/2014 07:42:24 81.32, 111.63 106.85 01/01/2014 07:42:44 81.32, 111.81 106.87 3.03 20
2 01/01/2014 08:33:03 -81.33, -80.36 73.09 01/01/2014 08:32:10 -81.34, -80.18 73.08 3.14 53
3 01/04/2014 03:16:44 81.32, 178.10 106.56 01/04/2014 03:16:57 81.32, 178.21 106.57 1.96 13
4 01/04/2014 04:07:23 -81.33, -13.90 73.38 01/04/2014 04:06:23 -81.34, -13.76 73.38 2.54 60
5 01/06/2014 22:51:04 81.33,-115.15 106.24 01/06/2014 22:51:10 81.32,-115.26 106.23 2.02 6
6 01
